Weather Roundup
Issued by NWS Corpus Christi, TX

Home | Current Version | Previous Version | Text Only | Print | Product List | Glossary On
Versions: 1 2 3 4 5 6 7 8 9 10 11 12 13 14 15 16 17 18 19 20 21 22 23 24 25 26 27 28 29 30 31 32 33 34 35 36 37 38 39 40 41 42 43 44 45 46 47 48 49 50
000
ASUS44 KCRP 250210
HRRCRP

SOUTH TEXAS REGIONAL WEATHER ROUNDUP
NATIONAL WEATHER SERVICE CORPUS CHRISTI TX
900 PM CDT SAT SEP 24 2016


TXZ229>244-250300-
...CORPUS CHRISTI AREA OBSERVATIONS...

CITY           SKY/WX    TMP DP  RH WIND       PRES   REMARKS
CORPUS CHRISTI PTCLDY    85  78  80 SE13      29.89R HX  96
NAS CORPUS CHR PTCLDY    86  79  79 SE16      29.89R HX  99
ROCKPORT       PTCLDY    84  76  76 SE15      29.89R HX  93
KINGSVILLE NAS CLEAR     83  77  82 SE12      29.88R HX  92
ALICE          CLEAR     83  75  77 SE13      29.88R HX  90
FALFURRIAS     CLEAR     85  73  68 SE10G16   29.86R HX  92
$$

...VICTORIA AREA OBSERVATIONS...

CITY           SKY/WX    TMP DP  RH WIND       PRES   REMARKS
VICTORIA       PTCLDY    76  74  93 SE6       29.92R
BEEVILLE       FAIR      82  77  84 SE10      29.90R HX  91
PLEASANTON     CLEAR     83  70  62 E6        29.89R
SAN ANTONIO    PTCLDY    81  73  76 E13       29.92R
$$

...LAREDO AREA OBSERVATIONS...

CITY           SKY/WX    TMP DP  RH WIND       PRES   REMARKS
LAREDO         CLEAR     91  68  46 SE15      29.83R HX  95
COTULLA        PTCLDY    90  71  53 SE22G29   29.85R HX  96
DEL RIO        HVY RAIN  70  70 100 E10       29.93R FOG
MCALLEN        CLEAR     88  73  61 SE18G26   29.86R HX  95
HEBBRONVILLE   CLOUDY    86  72  62 SE14      29.89R HX  92
$$

...OTHER TEXAS OBSERVATIONS...

CITY           SKY/WX    TMP DP  RH WIND       PRES   REMARKS
BROWNSVILLE    CLEAR     85  75  72 SE12      29.89R HX  93
HOUSTON        MOCLDY    77  76  96 E5        29.94R
COL. STATION   CLOUDY    78  75  90 SE10      29.92F
AUSTIN         PTCLDY    80  75  84 SE9       29.91R
WACO           LGT RAIN  79  72  79 S9        29.93R
FORT WORTH     CLOUDY    75  71  87 SE9       29.94R THUNDER
WICHITA FALLS  TSTM      71  68  90 W33G40    29.95R
LUBBOCK        PTCLDY    67  64  90 SE7       29.98R
EL PASO        PTCLDY    78  39  24 NW5       29.99R
$$

...MARINE OBSERVATIONS...

STATION/POSITION TIME  SKY/WX   TEMP    WIND        PRES    VSBY  WAVE   SWELL
                                AIR SEA DIR/SP/G                  HT/PER HT/PER
                 (UTC)          (F)     (DEG/KT/KT) (MB)    (MI)  (FT/S) (FT/S)
PORT ARANSAS     0200            86 87  130/ 17/ 18 1012.2R
BUOY 90 E PORT A 0150            84 86  130/ 12/ 14 1012.7R         2/ 4
BUOY 45 SE BAFFI 0150            86 86  150/ 16/ 19 1012.0R         3/ 5
BUOY 200 E PT IS 0150            86 87  150/ 10/ 12 1012.2F         2/ 5   2/ 5
BUOY 15 E GALVES 0150            83 86  170/ 12/ 12 1014.2R         2/ 5
$$




USA.gov is the U.S. government's official web portal to all federal, state and local government web resources and services.